GTI8004 EBLG-OERK

Flight info

Callsign GTI8004
Flight time 5h 50m
Altitude 23000
Route LNO DCT ARCKY L607 ROPUV/N0492F310 L607 TEDGO/N0486F330 L607 UTABA DCT BEMKI DCT ELMEM DCT DIRAB DCT RASUG DCT OKLAX DCT RETRA DCT BONZI DCT BITLA DCT AKINA DCT LINRO UL52 VAXOS UN134 VANZA DCT RASDA A16 CVO L315 OBTAV/N0483F350 L315 HGD M872 WEJ L604 GAS G662 SIVIS
Aircraft B77L/H-SDE1E2E3FGHIJ2J3J4J5M1RWXY/LB1D1

Departure

Time 2026-04-24 05:38
Airport Liège Airport (EBLG)

Arrival

Time 2026-04-24 11:29
Airport King Khalid International Airport (OERK)
Time Latitude Longitude Altitude Speed Heading
2026-04-24 05:04 50.63866 5.45169 620 ft 0 kts 136°
2026-04-24 05:27 50.63881 5.45148 633 ft 4 kts 146°
2026-04-24 05:28 50.63904 5.45128 633 ft 4 kts 163°
2026-04-24 05:28 50.63929 5.45120 629 ft 4 kts 183°
2026-04-24 05:28 50.63955 5.45128 631 ft 4 kts 204°
2026-04-24 05:28 50.63976 5.45149 633 ft 4 kts 223°
2026-04-24 05:29 50.63982 5.45157 633 ft 0 kts 225°
2026-04-24 05:31 50.63982 5.45156 633 ft 1 kts 225°
2026-04-24 05:32 50.63961 5.45123 628 ft 8 kts 225°
2026-04-24 05:32 50.63902 5.45029 631 ft 16 kts 225°
2026-04-24 05:32 50.63811 5.44884 630 ft 20 kts 225°
2026-04-24 05:32 50.63714 5.44729 632 ft 20 kts 225°
2026-04-24 05:33 50.63616 5.44575 631 ft 20 kts 224°
2026-04-24 05:33 50.63519 5.44423 637 ft 20 kts 225°
2026-04-24 05:33 50.63422 5.44268 640 ft 20 kts 225°
2026-04-24 05:34 50.63226 5.43961 643 ft 19 kts 225°
2026-04-24 05:34 50.63226 5.43839 646 ft 10 kts 342°
2026-04-24 05:34 50.63315 5.43848 648 ft 15 kts 337°
2026-04-24 05:34 50.63316 5.43736 651 ft 12 kts 229°
2026-04-24 05:35 50.63239 5.43617 655 ft 19 kts 224°
2026-04-24 05:35 50.63130 5.43445 656 ft 25 kts 225°
2026-04-24 05:35 50.62995 5.43227 662 ft 28 kts 225°
2026-04-24 05:35 50.62857 5.43012 671 ft 25 kts 225°
2026-04-24 05:36 50.62748 5.42896 671 ft 12 kts 193°
2026-04-24 05:36 50.62719 5.42831 671 ft 5 kts 287°
2026-04-24 05:36 50.62743 5.42825 672 ft 5 kts 20°
2026-04-24 05:36 50.62782 5.42885 672 ft 10 kts 56°
2026-04-24 05:37 50.62831 5.42968 672 ft 11 kts 44°
2026-04-24 05:37 50.62853 5.43003 671 ft 0 kts 45°
2026-04-24 05:37 50.62877 5.43042 669 ft 25 kts 45°
2026-04-24 05:37 50.63200 5.43554 657 ft 105 kts 45°
2026-04-24 05:38 50.63889 5.44642 626 ft 172 kts 44°
2026-04-24 05:38 50.64780 5.46013 1054 ft 183 kts 44°
2026-04-24 05:38 50.65702 5.47450 1652 ft 187 kts 45°
2026-04-24 05:38 50.66623 5.48893 2327 ft 186 kts 45°
2026-04-24 05:39 50.67550 5.50326 2976 ft 186 kts 44°
2026-04-24 05:39 50.68475 5.51742 3595 ft 184 kts 44°
2026-04-24 05:39 50.69395 5.53142 4174 ft 185 kts 44°
2026-04-24 05:39 50.70331 5.54564 4632 ft 188 kts 44°
2026-04-24 05:40 50.71268 5.55988 5097 ft 190 kts 44°
2026-04-24 05:40 50.72224 5.57448 5596 ft 191 kts 44°
2026-04-24 05:40 50.73297 5.58663 6036 ft 193 kts 22°
2026-04-24 05:40 50.74665 5.58955 6319 ft 206 kts 352°
2026-04-24 05:41 50.75945 5.57998 6749 ft 211 kts 317°
2026-04-24 05:41 50.76653 5.55960 7120 ft 218 kts 279°
2026-04-24 05:41 50.76704 5.53634 7598 ft 208 kts 273°
2026-04-24 05:41 50.76706 5.51322 7903 ft 216 kts 272°
2026-04-24 05:42 50.76787 5.48896 8105 ft 225 kts 283°
2026-04-24 05:42 50.77187 5.46511 8470 ft 226 kts 290°
2026-04-24 05:42 50.77659 5.44021 8616 ft 244 kts 289°
2026-04-24 05:42 50.78130 5.41366 8824 ft 261 kts 286°
2026-04-24 05:43 50.78555 5.38457 9006 ft 279 kts 285°
2026-04-24 05:43 50.78978 5.35412 9449 ft 288 kts 285°
2026-04-24 05:43 50.79409 5.32326 9996 ft 293 kts 285°
2026-04-24 05:43 50.79856 5.29157 10583 ft 298 kts 285°
2026-04-24 05:44 50.80323 5.25864 10804 ft 317 kts 284°
2026-04-24 05:44 50.80503 5.22308 10914 ft 337 kts 262°
2026-04-24 05:44 50.79649 5.18792 11074 ft 360 kts 235°
2026-04-24 05:44 50.77794 5.16082 11281 ft 377 kts 207°
2026-04-24 05:45 50.75274 5.14898 11780 ft 384 kts 181°
2026-04-24 05:45 50.72612 5.15103 12306 ft 383 kts 171°
2026-04-24 05:45 50.70065 5.16349 12807 ft 387 kts 147°
2026-04-24 05:45 50.68104 5.19178 13624 ft 383 kts 122°
2026-04-24 05:46 50.66950 5.22913 14326 ft 379 kts 112°
2026-04-24 05:46 50.65722 5.26657 14764 ft 389 kts 120°
2026-04-24 05:46 50.64293 5.30308 15414 ft 392 kts 121°
2026-04-24 05:46 50.62832 5.33885 16146 ft 393 kts 122°
2026-04-24 05:47 50.61333 5.37512 16871 ft 395 kts 122°
2026-04-24 05:47 50.59822 5.41164 17549 ft 399 kts 122°
2026-04-24 05:47 50.58301 5.44846 18202 ft 402 kts 122°
2026-04-24 05:47 50.56771 5.48559 18836 ft 405 kts 122°
2026-04-24 05:48 50.55255 5.52240 19427 ft 407 kts 122°
2026-04-24 05:48 50.53711 5.55989 20030 ft 409 kts 122°
2026-04-24 05:48 50.52162 5.59748 20616 ft 411 kts 122°
2026-04-24 05:48 50.50596 5.63542 21183 ft 413 kts 122°
2026-04-24 05:49 50.49027 5.67341 21747 ft 416 kts 122°
2026-04-24 05:49 50.47464 5.71117 22298 ft 418 kts 122°
2026-04-24 05:49 50.45870 5.74964 22855 ft 421 kts 122°
2026-04-24 05:49 50.44266 5.78830 23394 ft 423 kts 123°
2026-04-24 05:50 50.42652 5.82712 23916 ft 426 kts 123°
2026-04-24 05:50 50.41044 5.86577 24375 ft 428 kts 123°
2026-04-24 05:50 50.39413 5.90489 24860 ft 429 kts 123°
2026-04-24 05:50 50.37773 5.94416 25372 ft 429 kts 123°
2026-04-24 05:51 50.36133 5.98342 25858 ft 430 kts 122°
2026-04-24 05:51 50.34488 6.02273 26337 ft 432 kts 123°
2026-04-24 05:51 50.32854 6.06169 26783 ft 433 kts 122°
2026-04-24 05:51 50.31350 6.10266 27213 ft 435 kts 115°
2026-04-24 05:52 50.30193 6.14655 27647 ft 436 kts 110°
2026-04-24 05:52 50.29292 6.19192 28091 ft 438 kts 105°
2026-04-24 05:52 50.28726 6.23886 28496 ft 440 kts 99°
2026-04-24 05:52 50.28290 6.28634 28880 ft 442 kts 99°
2026-04-24 05:53 50.27841 6.33352 29261 ft 443 kts 100°
2026-04-24 05:53 50.27341 6.38115 29629 ft 445 kts 101°
2026-04-24 05:53 50.26818 6.42899 29995 ft 446 kts 101°
2026-04-24 05:53 50.26290 6.47684 30336 ft 447 kts 101°
2026-04-24 05:54 50.25761 6.52493 30681 ft 446 kts 101°
2026-04-24 05:54 50.25236 6.57277 31078 ft 445 kts 101°
2026-04-24 05:54 50.24722 6.61972 31281 ft 446 kts 101°
2026-04-24 05:54 50.24195 6.66768 31266 ft 446 kts 101°
2026-04-24 05:55 50.23145 6.76307 31260 ft 444 kts 101°
2026-04-24 05:55 50.22130 6.85828 31262 ft 445 kts 98°
2026-04-24 05:56 50.21616 6.95431 31271 ft 446 kts 96°
2026-04-24 05:56 50.21123 7.05084 31264 ft 446 kts 96°
2026-04-24 05:57 50.20602 7.14786 31647 ft 447 kts 96°
2026-04-24 05:57 50.20342 7.19559 32067 ft 444 kts 96°
2026-04-24 05:57 50.20077 7.24358 32459 ft 442 kts 96°
2026-04-24 05:58 50.19787 7.29139 32833 ft 440 kts 99°
2026-04-24 05:58 50.19267 7.33843 33133 ft 439 kts 103°
2026-04-24 05:58 50.17513 7.42988 33261 ft 443 kts 109°
2026-04-24 05:59 50.15550 7.52076 33253 ft 439 kts 108°
2026-04-24 05:59 50.13946 7.59584 33254 ft 437 kts 108°
2026-04-24 06:00 50.11717 7.70044 33265 ft 436 kts 108°
2026-04-24 06:00 50.10110 7.77552 33263 ft 436 kts 108°
2026-04-24 06:01 50.08155 7.86461 33254 ft 437 kts 111°
2026-04-24 06:01 50.05442 7.94947 33259 ft 439 kts 120°
2026-04-24 06:02 50.02043 8.02801 33262 ft 440 kts 122°
2026-04-24 06:02 49.98572 8.10698 33250 ft 441 kts 122°
2026-04-24 06:03 49.95111 8.18612 33261 ft 442 kts 122°
2026-04-24 06:03 49.91675 8.26472 33258 ft 443 kts 122°
2026-04-24 06:04 49.88207 8.34384 33246 ft 443 kts 122°
2026-04-24 06:04 49.84595 8.42028 33245 ft 442 kts 128°
2026-04-24 06:05 49.80210 8.48765 33251 ft 444 kts 134°
2026-04-24 06:05 49.75680 8.55265 33245 ft 442 kts 135°
2026-04-24 06:06 49.70475 8.60406 33250 ft 452 kts 152°
2026-04-24 06:06 49.64369 8.63157 33259 ft 463 kts 165°
2026-04-24 06:07 49.57990 8.64756 33262 ft 465 kts 166°
2026-04-24 06:07 49.51638 8.66470 33263 ft 466 kts 165°
2026-04-24 06:08 49.45362 8.68843 33265 ft 461 kts 156°
2026-04-24 06:08 49.39495 8.72708 33253 ft 458 kts 151°
2026-04-24 06:09 49.33731 8.76795 33246 ft 459 kts 151°
2026-04-24 06:09 49.27894 8.80863 33239 ft 460 kts 152°
2026-04-24 06:10 49.22090 8.84883 33218 ft 460 kts 152°
2026-04-24 06:11 49.13312 8.90934 33081 ft 465 kts 154°
2026-04-24 06:11 49.07317 8.95038 33221 ft 477 kts 154°
2026-04-24 06:12 49.01168 8.99241 33234 ft 489 kts 154°
2026-04-24 06:12 48.94978 9.03462 33229 ft 490 kts 154°
2026-04-24 06:13 48.88760 9.07690 33227 ft 489 kts 154°
2026-04-24 06:13 48.82542 9.11907 33237 ft 487 kts 154°
2026-04-24 06:14 48.76395 9.16067 33245 ft 485 kts 154°
2026-04-24 06:14 48.70233 9.20225 33224 ft 484 kts 154°
2026-04-24 06:15 48.64071 9.24373 33244 ft 483 kts 154°
2026-04-24 06:15 48.57862 9.28200 33248 ft 483 kts 158°
2026-04-24 06:16 48.51577 9.31680 33241 ft 483 kts 158°
2026-04-24 06:16 48.45253 9.35186 33234 ft 484 kts 158°
2026-04-24 06:17 48.38925 9.38723 33212 ft 485 kts 158°
2026-04-24 06:17 48.32616 9.42244 33209 ft 485 kts 158°
2026-04-24 06:18 48.26414 9.46215 33213 ft 483 kts 149°
2026-04-24 06:18 48.20865 9.51725 33209 ft 480 kts 138°
2026-04-24 06:19 48.15730 9.58113 33231 ft 479 kts 138°
2026-04-24 06:19 48.10580 9.64512 33208 ft 480 kts 138°
2026-04-24 06:20 48.07057 9.68846 33208 ft 480 kts 138°
2026-04-24 06:20 48.02052 9.74962 33209 ft 480 kts 138°
2026-04-24 06:21 47.96891 9.81246 33210 ft 481 kts 138°
2026-04-24 06:21 47.91703 9.87547 33215 ft 481 kts 138°
2026-04-24 06:22 47.86506 9.93843 33217 ft 481 kts 138°
2026-04-24 06:22 47.81338 10.00089 33220 ft 481 kts 138°
2026-04-24 06:23 47.76127 10.06371 33216 ft 481 kts 138°
2026-04-24 06:23 47.70947 10.12597 33211 ft 481 kts 138°
2026-04-24 06:24 47.65739 10.18843 33200 ft 482 kts 138°
2026-04-24 06:24 47.60516 10.25092 33205 ft 482 kts 138°
2026-04-24 06:25 47.55285 10.31249 33204 ft 483 kts 141°
2026-04-24 06:25 47.49655 10.36773 33208 ft 485 kts 144°
2026-04-24 06:26 47.43995 10.42201 33229 ft 485 kts 143°
2026-04-24 06:26 47.38330 10.47681 33224 ft 486 kts 143°
2026-04-24 06:27 47.32710 10.53127 33225 ft 486 kts 143°
2026-04-24 06:27 47.27050 10.58622 33231 ft 486 kts 142°
2026-04-24 06:28 47.21542 10.64371 33232 ft 485 kts 140°
2026-04-24 06:28 47.16103 10.70162 33235 ft 485 kts 141°
2026-04-24 06:29 47.10609 10.75940 33233 ft 486 kts 141°
2026-04-24 06:29 47.05093 10.81686 33219 ft 487 kts 141°
2026-04-24 06:30 46.99550 10.87441 33212 ft 488 kts 141°
2026-04-24 06:30 46.94046 10.93144 33216 ft 487 kts 141°
2026-04-24 06:31 46.88504 10.98876 33211 ft 487 kts 141°
2026-04-24 06:31 46.83001 11.04653 33197 ft 485 kts 137°
2026-04-24 06:32 46.78214 11.11385 33208 ft 478 kts 127°
2026-04-24 06:32 46.73900 11.18803 33218 ft 478 kts 126°
2026-04-24 06:33 46.69598 11.26158 33216 ft 479 kts 127°
2026-04-24 06:33 46.65234 11.33542 33217 ft 479 kts 127°
2026-04-24 06:34 46.60890 11.40847 33211 ft 480 kts 127°
2026-04-24 06:34 46.56509 11.48190 33216 ft 479 kts 127°
2026-04-24 06:35 46.52148 11.55483 33208 ft 480 kts 127°
2026-04-24 06:35 46.47756 11.62812 33206 ft 480 kts 127°
2026-04-24 06:36 46.43363 11.70121 33203 ft 479 kts 127°
2026-04-24 06:36 46.38970 11.77408 33180 ft 479 kts 127°
2026-04-24 06:37 46.34600 11.84641 33163 ft 481 kts 127°
2026-04-24 06:37 46.30186 11.91928 33141 ft 482 kts 127°
2026-04-24 06:38 46.25747 11.99237 33134 ft 482 kts 127°
2026-04-24 06:38 46.21334 12.06480 33134 ft 482 kts 127°
2026-04-24 06:39 46.16893 12.13749 33122 ft 482 kts 127°
2026-04-24 06:39 46.12454 12.21000 33133 ft 481 kts 127°
2026-04-24 06:40 46.08044 12.28184 33133 ft 480 kts 127°
2026-04-24 06:40 46.03606 12.35393 33144 ft 480 kts 127°
2026-04-24 06:41 45.99192 12.42546 33144 ft 480 kts 127°
2026-04-24 06:41 45.94751 12.49726 33151 ft 480 kts 127°
2026-04-24 06:42 45.90327 12.56858 33154 ft 481 kts 127°
2026-04-24 06:42 45.85856 12.64046 33147 ft 482 kts 127°
2026-04-24 06:43 45.81375 12.71232 33136 ft 482 kts 127°
2026-04-24 06:43 45.76911 12.78374 33128 ft 483 kts 127°
2026-04-24 06:44 45.72422 12.85538 33132 ft 483 kts 127°
2026-04-24 06:44 45.67938 12.92718 33125 ft 482 kts 125°
2026-04-24 06:45 45.63788 13.00152 33130 ft 480 kts 123°
2026-04-24 06:45 45.59668 13.07682 33127 ft 480 kts 123°
2026-04-24 06:46 45.55530 13.15203 33130 ft 481 kts 123°
2026-04-24 06:46 45.51398 13.22658 33138 ft 481 kts 123°
2026-04-24 06:47 45.47234 13.30135 33144 ft 481 kts 123°
2026-04-24 06:47 45.43090 13.37557 33151 ft 481 kts 123°
2026-04-24 06:48 45.38922 13.45005 33151 ft 481 kts 123°
2026-04-24 06:48 45.35451 13.51193 33152 ft 481 kts 123°
2026-04-24 06:49 45.31287 13.58598 33152 ft 481 kts 124°
2026-04-24 06:49 45.27102 13.66021 33147 ft 481 kts 124°
2026-04-24 06:50 45.22906 13.73445 33140 ft 481 kts 124°
2026-04-24 06:50 45.18727 13.80818 33136 ft 481 kts 124°
2026-04-24 06:51 45.14515 13.88229 33141 ft 482 kts 124°
2026-04-24 06:51 45.10303 13.95625 33148 ft 482 kts 124°
2026-04-24 06:52 45.06083 14.03014 33155 ft 483 kts 124°
2026-04-24 06:52 45.01864 14.10379 33139 ft 483 kts 124°
2026-04-24 06:53 44.97650 14.17718 33150 ft 483 kts 124°
2026-04-24 06:53 44.93397 14.25106 33142 ft 484 kts 124°
2026-04-24 06:54 44.89136 14.32488 33137 ft 484 kts 124°
2026-04-24 06:54 44.84906 14.39798 33132 ft 484 kts 124°
2026-04-24 06:55 44.80628 14.47172 33131 ft 485 kts 124°
2026-04-24 06:55 44.76345 14.54537 33125 ft 485 kts 124°
2026-04-24 06:56 44.72083 14.61845 33128 ft 486 kts 124°
2026-04-24 06:56 44.67778 14.69209 33126 ft 486 kts 124°
2026-04-24 06:57 44.63488 14.76527 33127 ft 487 kts 124°
2026-04-24 06:57 44.59171 14.83873 33128 ft 487 kts 124°
2026-04-24 06:58 44.54876 14.91162 33134 ft 487 kts 124°
2026-04-24 06:58 44.50545 14.98496 33139 ft 487 kts 124°
2026-04-24 06:59 44.46231 15.05779 33135 ft 487 kts 124°
2026-04-24 06:59 44.41887 15.13095 33126 ft 488 kts 124°
2026-04-24 07:00 44.37533 15.20411 33135 ft 488 kts 124°
2026-04-24 07:00 44.33212 15.27654 33147 ft 488 kts 125°
2026-04-24 07:01 44.28853 15.34936 33154 ft 488 kts 125°
2026-04-24 07:01 44.24491 15.42209 33170 ft 488 kts 125°
2026-04-24 07:02 44.20144 15.49436 33155 ft 488 kts 125°
2026-04-24 07:02 44.15770 15.56692 33161 ft 488 kts 125°
2026-04-24 07:03 44.11424 15.63884 33149 ft 488 kts 125°
2026-04-24 07:03 44.07043 15.71115 33139 ft 488 kts 125°
2026-04-24 07:04 44.02659 15.78331 33132 ft 488 kts 126°
2026-04-24 07:04 43.98278 15.85529 33136 ft 488 kts 126°
2026-04-24 07:05 43.93913 15.92682 33139 ft 488 kts 126°
2026-04-24 07:05 43.89504 15.99889 33140 ft 489 kts 126°
2026-04-24 07:06 43.85308 16.07241 33129 ft 484 kts 119°
2026-04-24 07:06 43.81654 16.15031 33140 ft 484 kts 118°
2026-04-24 07:07 43.77993 16.22880 33137 ft 484 kts 118°
2026-04-24 07:07 43.72458 16.34590 33132 ft 485 kts 119°
2026-04-24 07:08 43.68764 16.42341 33131 ft 486 kts 119°
2026-04-24 07:08 43.65031 16.50152 33132 ft 485 kts 119°
2026-04-24 07:09 43.61329 16.57878 33138 ft 485 kts 119°
2026-04-24 07:09 43.57598 16.65649 33136 ft 485 kts 119°
2026-04-24 07:10 43.53855 16.73424 33128 ft 486 kts 119°
2026-04-24 07:10 43.50139 16.81118 33125 ft 485 kts 119°
2026-04-24 07:11 43.46393 16.88856 33126 ft 485 kts 120°
2026-04-24 07:11 43.42654 16.96564 33104 ft 485 kts 120°
2026-04-24 07:12 43.38897 17.04285 33131 ft 486 kts 120°
2026-04-24 07:12 43.35121 17.12028 33111 ft 487 kts 120°
2026-04-24 07:13 43.31354 17.19726 33119 ft 488 kts 120°
2026-04-24 07:13 43.27558 17.27466 33125 ft 488 kts 120°
2026-04-24 07:14 43.23750 17.35213 33110 ft 489 kts 120°
2026-04-24 07:14 43.19943 17.42932 33125 ft 488 kts 120°
2026-04-24 07:15 43.16161 17.50582 33122 ft 488 kts 120°
2026-04-24 07:15 43.12341 17.58289 33124 ft 488 kts 120°
2026-04-24 07:16 43.08516 17.65989 33116 ft 488 kts 120°
2026-04-24 07:16 43.04714 17.73621 33129 ft 488 kts 120°
2026-04-24 07:17 43.00883 17.81295 33121 ft 489 kts 120°
2026-04-24 07:17 42.97027 17.88996 33110 ft 490 kts 121°
2026-04-24 07:18 42.93200 17.96619 33094 ft 490 kts 121°
2026-04-24 07:18 42.89334 18.04299 33100 ft 490 kts 121°
2026-04-24 07:19 42.85480 18.11934 33087 ft 491 kts 121°
2026-04-24 07:19 42.81589 18.19624 33081 ft 491 kts 121°
2026-04-24 07:20 42.77723 18.27247 33091 ft 491 kts 121°
2026-04-24 07:20 42.73834 18.34898 33078 ft 491 kts 121°
2026-04-24 07:21 42.69954 18.42509 33076 ft 491 kts 121°
2026-04-24 07:21 42.66057 18.50132 33082 ft 491 kts 121°
2026-04-24 07:22 42.62154 18.57747 33074 ft 491 kts 121°
2026-04-24 07:22 42.58269 18.65310 33086 ft 490 kts 121°
2026-04-24 07:23 42.54358 18.72906 33079 ft 490 kts 121°
2026-04-24 07:23 42.50437 18.80499 33075 ft 490 kts 121°
2026-04-24 07:24 42.46515 18.88077 33078 ft 490 kts 121°
2026-04-24 07:24 42.42620 18.95582 33074 ft 490 kts 121°
2026-04-24 07:25 42.38692 19.03135 33083 ft 489 kts 122°
2026-04-24 07:25 42.34759 19.10675 33081 ft 490 kts 122°
2026-04-24 07:26 42.30852 19.18151 33077 ft 490 kts 122°
2026-04-24 07:26 42.26909 19.25677 33076 ft 490 kts 122°
2026-04-24 07:27 42.22951 19.33196 33077 ft 491 kts 123°
2026-04-24 07:27 42.18636 19.40370 33083 ft 492 kts 127°
2026-04-24 07:28 42.14216 19.47429 33080 ft 493 kts 127°
2026-04-24 07:28 42.09808 19.54485 33078 ft 494 kts 127°
2026-04-24 07:29 42.05389 19.61582 33082 ft 494 kts 126°
2026-04-24 07:29 42.00996 19.68637 33083 ft 495 kts 127°
2026-04-24 07:30 41.96549 19.75759 33064 ft 495 kts 127°
2026-04-24 07:30 41.92138 19.82804 33081 ft 494 kts 127°
2026-04-24 07:31 41.87700 19.89872 33055 ft 494 kts 127°
2026-04-24 07:31 41.83266 19.96921 33079 ft 494 kts 127°
2026-04-24 07:32 41.78856 20.03919 33062 ft 493 kts 127°
2026-04-24 07:32 41.74411 20.10949 33066 ft 493 kts 127°
2026-04-24 07:33 41.69969 20.17960 33100 ft 492 kts 127°
2026-04-24 07:33 41.65554 20.24917 33075 ft 493 kts 127°
2026-04-24 07:34 41.61112 20.31896 33080 ft 492 kts 127°
2026-04-24 07:34 41.56674 20.38854 33088 ft 492 kts 127°
2026-04-24 07:35 41.52973 20.44645 33079 ft 492 kts 127°
2026-04-24 07:35 41.48424 20.51415 33086 ft 493 kts 130°
2026-04-24 07:36 41.42875 20.59087 33079 ft 493 kts 131°
2026-04-24 07:36 41.38912 20.64574 33076 ft 493 kts 130°
2026-04-24 07:37 41.34176 20.71192 33084 ft 493 kts 130°
2026-04-24 07:37 41.29454 20.77809 33085 ft 493 kts 130°
2026-04-24 07:38 41.24726 20.84426 33083 ft 493 kts 130°
2026-04-24 07:38 41.20019 20.90989 33073 ft 492 kts 130°
2026-04-24 07:39 41.15301 20.97550 33073 ft 492 kts 130°
2026-04-24 07:39 41.10574 21.04111 33072 ft 491 kts 130°
2026-04-24 07:40 41.05849 21.10654 33072 ft 490 kts 130°
2026-04-24 07:40 41.01160 21.17134 33085 ft 489 kts 130°
2026-04-24 07:41 40.96436 21.23648 33075 ft 489 kts 130°
2026-04-24 07:41 40.91748 21.30101 33077 ft 489 kts 130°
2026-04-24 07:42 40.87022 21.36590 33083 ft 488 kts 130°
2026-04-24 07:42 40.82284 21.43046 33077 ft 489 kts 130°
2026-04-24 07:43 40.77563 21.49450 33080 ft 488 kts 130°
2026-04-24 07:43 40.72809 21.55890 33082 ft 489 kts 130°
2026-04-24 07:44 40.68081 21.62289 33079 ft 489 kts 130°
2026-04-24 07:44 40.63316 21.68723 33075 ft 489 kts 130°
2026-04-24 07:45 40.58578 21.75108 33076 ft 490 kts 130°
2026-04-24 07:45 40.53820 21.81504 33071 ft 489 kts 131°
2026-04-24 07:46 40.49038 21.87919 33073 ft 489 kts 131°
2026-04-24 07:46 40.44298 21.94264 33071 ft 489 kts 131°
2026-04-24 07:47 40.39526 22.00638 33080 ft 489 kts 131°
2026-04-24 07:47 40.34751 22.07003 33077 ft 489 kts 131°
2026-04-24 07:48 40.29969 22.13364 33074 ft 489 kts 131°
2026-04-24 07:48 40.25223 22.19663 33054 ft 488 kts 131°
2026-04-24 07:49 40.20441 22.25994 33072 ft 487 kts 131°
2026-04-24 07:49 40.15662 22.32309 33045 ft 487 kts 131°
2026-04-24 07:50 40.10905 22.38583 33048 ft 487 kts 131°
2026-04-24 07:50 40.06156 22.44835 33074 ft 487 kts 132°
2026-04-24 07:51 40.01374 22.51114 33068 ft 486 kts 132°
2026-04-24 07:51 39.96583 22.57391 33057 ft 487 kts 132°
2026-04-24 07:52 39.91824 22.63614 33070 ft 486 kts 132°
2026-04-24 07:52 39.87039 22.69860 33099 ft 486 kts 132°
2026-04-24 07:53 39.82272 22.76069 33074 ft 487 kts 132°
2026-04-24 07:53 39.77463 22.82318 33074 ft 487 kts 133°
2026-04-24 07:54 39.72685 22.88512 33074 ft 488 kts 133°
2026-04-24 07:54 39.67873 22.94740 33071 ft 488 kts 133°
2026-04-24 07:55 39.63049 23.00971 33068 ft 488 kts 133°
2026-04-24 07:55 39.58258 23.07145 33067 ft 488 kts 133°
2026-04-24 07:56 39.53426 23.13359 33063 ft 489 kts 133°
2026-04-24 07:56 39.48590 23.19566 33066 ft 489 kts 133°
2026-04-24 07:57 39.43774 23.25734 33059 ft 489 kts 133°
2026-04-24 07:57 39.38914 23.31947 33046 ft 489 kts 133°
2026-04-24 07:58 39.34092 23.38097 33040 ft 488 kts 133°
2026-04-24 07:58 39.29252 23.44257 33027 ft 487 kts 133°
2026-04-24 07:59 39.24418 23.50396 33022 ft 486 kts 133°
2026-04-24 07:59 39.19634 23.56462 33021 ft 484 kts 133°
2026-04-24 08:00 39.14836 23.62531 33021 ft 483 kts 133°
2026-04-24 08:00 39.10033 23.68595 33034 ft 482 kts 133°
2026-04-24 08:01 39.05265 23.74602 33039 ft 482 kts 133°
2026-04-24 08:01 39.00458 23.80649 33055 ft 481 kts 133°
2026-04-24 08:02 38.95690 23.86634 33061 ft 481 kts 133°
2026-04-24 08:02 38.90885 23.92652 33060 ft 481 kts 133°
2026-04-24 08:03 38.86082 23.98655 33063 ft 482 kts 133°
2026-04-24 08:03 38.81272 24.04656 33059 ft 482 kts 134°
2026-04-24 08:04 38.76487 24.10614 33055 ft 482 kts 134°
2026-04-24 08:04 38.71661 24.16610 33061 ft 482 kts 134°
2026-04-24 08:05 38.66829 24.22602 33060 ft 483 kts 134°
2026-04-24 08:05 38.62020 24.28554 33057 ft 483 kts 134°
2026-04-24 08:06 38.57181 24.34532 33056 ft 484 kts 135°
2026-04-24 08:06 38.52327 24.40517 33052 ft 484 kts 135°
2026-04-24 08:07 38.47499 24.46456 33051 ft 485 kts 135°
2026-04-24 08:07 38.42647 24.52413 33054 ft 486 kts 136°
2026-04-24 08:08 38.37753 24.58412 33056 ft 487 kts 136°
2026-04-24 08:09 38.30417 24.67380 33047 ft 489 kts 137°
2026-04-24 08:09 38.25505 24.73370 33050 ft 491 kts 137°
2026-04-24 08:10 38.20563 24.79385 33048 ft 492 kts 137°
2026-04-24 08:10 38.15603 24.85410 33047 ft 492 kts 138°
2026-04-24 08:11 38.10662 24.91401 33045 ft 493 kts 139°
2026-04-24 08:11 38.05684 24.97424 33042 ft 493 kts 139°
2026-04-24 08:12 38.00739 25.03395 33040 ft 494 kts 139°
2026-04-24 08:12 37.95739 25.09421 33036 ft 495 kts 140°
2026-04-24 08:13 37.90762 25.15408 33030 ft 496 kts 140°
2026-04-24 08:13 37.85749 25.21425 33033 ft 496 kts 141°
2026-04-24 08:14 37.80717 25.27454 33033 ft 498 kts 141°
2026-04-24 08:14 37.75708 25.33443 33023 ft 499 kts 142°
2026-04-24 08:15 37.70655 25.39473 33015 ft 500 kts 142°
2026-04-24 08:15 37.65585 25.45511 33008 ft 501 kts 142°
2026-04-24 08:16 37.60538 25.51510 33003 ft 501 kts 143°
2026-04-24 08:16 37.55454 25.57543 33006 ft 502 kts 143°
2026-04-24 08:17 37.50363 25.63570 32998 ft 502 kts 143°
2026-04-24 08:17 37.45264 25.69596 33008 ft 502 kts 144°
2026-04-24 08:18 37.40197 25.75572 33017 ft 502 kts 144°
2026-04-24 08:18 37.35095 25.81577 33015 ft 502 kts 144°
2026-04-24 08:19 37.29985 25.87581 33007 ft 502 kts 144°
2026-04-24 08:19 37.24895 25.93549 33009 ft 502 kts 145°
2026-04-24 08:20 37.19808 25.99502 33009 ft 502 kts 145°
2026-04-24 08:20 37.14683 26.05488 33008 ft 502 kts 145°
2026-04-24 08:21 37.09565 26.11454 33004 ft 503 kts 145°
2026-04-24 08:21 37.04429 26.17432 33003 ft 503 kts 145°
2026-04-24 08:22 36.99328 26.23358 33002 ft 504 kts 145°
2026-04-24 08:22 36.94479 26.29843 33006 ft 512 kts 138°
2026-04-24 08:23 36.89895 26.36613 32998 ft 513 kts 138°
2026-04-24 08:23 36.86045 26.42290 32999 ft 513 kts 138°
2026-04-24 08:24 36.80646 26.50164 32995 ft 513 kts 138°
2026-04-24 08:24 36.76765 26.55787 33010 ft 513 kts 138°
2026-04-24 08:25 36.71332 26.63638 32996 ft 513 kts 138°
2026-04-24 08:25 36.67443 26.69251 32988 ft 513 kts 138°
2026-04-24 08:26 36.62775 26.75976 32983 ft 513 kts 138°
2026-04-24 08:26 36.58102 26.82697 32979 ft 512 kts 138°
2026-04-24 08:27 36.53449 26.89374 32980 ft 512 kts 138°
2026-04-24 08:27 36.48768 26.96078 32977 ft 512 kts 138°
2026-04-24 08:28 36.44093 27.02759 32980 ft 511 kts 138°
2026-04-24 08:28 36.39436 27.09401 32982 ft 511 kts 138°
2026-04-24 08:29 36.34755 27.16064 32977 ft 512 kts 138°
2026-04-24 08:29 36.30106 27.22670 32969 ft 511 kts 138°
2026-04-24 08:30 36.25417 27.29319 32968 ft 511 kts 138°
2026-04-24 08:30 36.20743 27.35933 32963 ft 511 kts 138°
2026-04-24 08:31 36.16048 27.42564 32969 ft 510 kts 138°
2026-04-24 08:31 36.11368 27.49162 32960 ft 510 kts 138°
2026-04-24 08:32 36.06705 27.55722 32964 ft 509 kts 138°
2026-04-24 08:32 36.02020 27.62303 32969 ft 508 kts 138°
2026-04-24 08:33 35.97374 27.68818 32970 ft 508 kts 137°
2026-04-24 08:33 35.93053 27.75816 32978 ft 513 kts 132°
2026-04-24 08:34 35.88936 27.82992 32969 ft 514 kts 132°
2026-04-24 08:34 35.84783 27.90180 32969 ft 513 kts 132°
2026-04-24 08:35 35.80606 27.97331 32963 ft 513 kts 132°
2026-04-24 08:35 35.76453 28.04412 32974 ft 513 kts 133°
2026-04-24 08:36 35.72263 28.11545 32972 ft 513 kts 132°
2026-04-24 08:36 35.68104 28.18616 32972 ft 512 kts 132°
2026-04-24 08:37 35.63907 28.25738 32968 ft 513 kts 133°
2026-04-24 08:37 35.59735 28.32792 32970 ft 512 kts 133°
2026-04-24 08:38 35.55533 28.39874 32970 ft 513 kts 133°
2026-04-24 08:38 35.51324 28.46958 32972 ft 513 kts 133°
2026-04-24 08:39 35.47138 28.53991 32974 ft 513 kts 133°
2026-04-24 08:39 35.42919 28.61067 32972 ft 513 kts 133°
2026-04-24 08:40 35.38726 28.68085 32974 ft 513 kts 133°
2026-04-24 08:40 35.34504 28.75137 32971 ft 513 kts 133°
2026-04-24 08:41 35.30274 28.82187 32970 ft 513 kts 133°
2026-04-24 08:41 35.26044 28.89224 32970 ft 513 kts 133°
2026-04-24 08:42 35.21832 28.96218 32968 ft 513 kts 133°
2026-04-24 08:42 35.17580 29.03264 32976 ft 514 kts 133°
2026-04-24 08:43 35.13349 29.10261 32975 ft 514 kts 133°
2026-04-24 08:43 35.09089 29.17292 32961 ft 514 kts 133°
2026-04-24 08:44 35.04832 29.24306 32982 ft 514 kts 133°
2026-04-24 08:44 35.00607 29.31364 32978 ft 516 kts 129°
2026-04-24 08:45 34.97174 29.39075 32970 ft 525 kts 118°
2026-04-24 08:45 34.94360 29.47303 32972 ft 525 kts 117°
2026-04-24 08:46 34.91541 29.55518 32974 ft 525 kts 118°
2026-04-24 08:46 34.88677 29.63688 32974 ft 524 kts 118°
2026-04-24 08:47 34.85788 29.71859 32973 ft 524 kts 118°
2026-04-24 08:47 34.82923 29.79948 32971 ft 523 kts 118°
2026-04-24 08:48 34.80038 29.88089 32974 ft 523 kts 118°
2026-04-24 08:48 34.76943 29.96061 32966 ft 512 kts 130°
2026-04-24 08:48 34.74706 29.99368 32985 ft 501 kts 142°
2026-04-24 08:49 34.72073 30.02071 32978 ft 491 kts 152°
2026-04-24 08:49 34.69142 30.04116 32974 ft 479 kts 162°
2026-04-24 08:49 34.66154 30.05795 32982 ft 480 kts 162°
2026-04-24 08:50 34.60052 30.09232 32975 ft 483 kts 161°
2026-04-24 08:50 34.53955 30.12734 32973 ft 485 kts 161°
2026-04-24 08:51 34.47892 30.16255 32971 ft 486 kts 161°
2026-04-24 08:51 34.41784 30.19810 32969 ft 485 kts 161°
2026-04-24 08:52 34.35725 30.23329 32965 ft 484 kts 161°
2026-04-24 08:52 34.29646 30.26851 32967 ft 482 kts 161°
2026-04-24 08:53 34.23603 30.30344 32967 ft 480 kts 161°
2026-04-24 08:53 34.17600 30.33807 32968 ft 479 kts 161°
2026-04-24 08:54 34.11585 30.37273 32971 ft 478 kts 161°
2026-04-24 08:54 34.05592 30.40719 32975 ft 478 kts 161°
2026-04-24 08:55 33.99627 30.44145 32972 ft 478 kts 161°
2026-04-24 08:55 33.93613 30.47594 32976 ft 478 kts 161°
2026-04-24 08:56 33.87596 30.51039 32975 ft 479 kts 161°
2026-04-24 08:56 33.81576 30.54481 32976 ft 479 kts 161°
2026-04-24 08:57 33.75580 30.57904 32977 ft 479 kts 161°
2026-04-24 08:57 33.69555 30.61338 32972 ft 479 kts 161°
2026-04-24 08:58 33.63504 30.64781 32980 ft 479 kts 161°
2026-04-24 08:58 33.57507 30.68188 32974 ft 479 kts 161°
2026-04-24 08:59 33.51472 30.71612 32975 ft 479 kts 161°
2026-04-24 08:59 33.45435 30.75032 32979 ft 479 kts 161°
2026-04-24 09:00 33.39400 30.78445 32978 ft 479 kts 161°
2026-04-24 09:00 33.33395 30.81836 32973 ft 479 kts 161°
2026-04-24 09:01 33.27363 30.85237 32979 ft 479 kts 161°
2026-04-24 09:01 33.21367 30.88614 32979 ft 479 kts 161°
2026-04-24 09:02 33.15327 30.92009 32975 ft 479 kts 161°
2026-04-24 09:02 33.09111 30.94661 32980 ft 468 kts 173°
2026-04-24 09:03 33.02736 30.95908 32975 ft 460 kts 181°
2026-04-24 09:03 32.96392 30.96571 32979 ft 460 kts 181°
2026-04-24 09:04 32.89994 30.97243 32977 ft 461 kts 181°
2026-04-24 09:04 32.83596 30.97943 32966 ft 461 kts 180°
2026-04-24 09:05 32.77229 30.98651 32981 ft 461 kts 180°
2026-04-24 09:05 32.70843 30.99363 32962 ft 461 kts 180°
2026-04-24 09:06 32.64447 31.00073 32971 ft 461 kts 180°
2026-04-24 09:06 32.58050 31.00783 32973 ft 461 kts 180°
2026-04-24 09:07 32.51657 31.01490 32964 ft 461 kts 180°
2026-04-24 09:07 32.42088 31.02547 32964 ft 460 kts 180°
2026-04-24 09:08 32.35738 31.03248 32965 ft 460 kts 180°
2026-04-24 09:08 32.29345 31.03952 32958 ft 460 kts 180°
2026-04-24 09:09 32.22955 31.04654 32960 ft 461 kts 180°
2026-04-24 09:09 32.16607 31.05352 32965 ft 461 kts 180°
2026-04-24 09:10 32.10212 31.06053 32961 ft 461 kts 180°
2026-04-24 09:10 32.03810 31.06755 32962 ft 461 kts 180°
2026-04-24 09:11 31.97434 31.07452 32953 ft 462 kts 180°
2026-04-24 09:11 31.92102 31.08034 32956 ft 462 kts 180°
2026-04-24 09:12 31.85684 31.08735 32953 ft 462 kts 180°
2026-04-24 09:12 31.78248 31.09545 32948 ft 463 kts 180°
2026-04-24 09:13 31.72868 31.10131 32942 ft 463 kts 180°
2026-04-24 09:13 31.66478 31.10826 32940 ft 463 kts 180°
2026-04-24 09:14 31.60048 31.11525 32939 ft 464 kts 180°
2026-04-24 09:14 31.53641 31.12221 32936 ft 464 kts 180°
2026-04-24 09:15 31.47212 31.13295 32929 ft 467 kts 176°
2026-04-24 09:15 31.40784 31.14519 32933 ft 467 kts 176°
2026-04-24 09:16 31.34395 31.15710 32920 ft 466 kts 176°
2026-04-24 09:16 31.28001 31.16884 32919 ft 466 kts 176°
2026-04-24 09:17 31.21591 31.18063 32916 ft 466 kts 176°
2026-04-24 09:17 31.15186 31.19261 32920 ft 465 kts 176°
2026-04-24 09:18 31.08814 31.20455 32918 ft 465 kts 176°
2026-04-24 09:18 31.02444 31.21645 32918 ft 464 kts 176°
2026-04-24 09:19 30.96058 31.22836 32911 ft 464 kts 176°
2026-04-24 09:19 30.89680 31.24022 32910 ft 464 kts 176°
2026-04-24 09:20 30.82282 31.25398 32905 ft 463 kts 176°
2026-04-24 09:20 30.76971 31.26383 32909 ft 463 kts 176°
2026-04-24 09:21 30.70595 31.27565 33064 ft 464 kts 176°
2026-04-24 09:21 30.67412 31.28155 33534 ft 461 kts 176°
2026-04-24 09:21 30.64263 31.28740 34067 ft 456 kts 176°
2026-04-24 09:22 30.61174 31.29312 34441 ft 454 kts 176°
2026-04-24 09:22 30.58047 31.29889 34699 ft 454 kts 176°
2026-04-24 09:22 30.54905 31.30467 34815 ft 458 kts 176°
2026-04-24 09:22 30.51738 31.31050 34853 ft 460 kts 176°
2026-04-24 09:23 30.45470 31.32208 34884 ft 456 kts 176°
2026-04-24 09:23 30.39211 31.33351 34896 ft 453 kts 176°
2026-04-24 09:24 30.32975 31.34483 34894 ft 453 kts 176°
2026-04-24 09:24 30.26777 31.35609 34910 ft 453 kts 175°
2026-04-24 09:25 30.20519 31.36747 34917 ft 455 kts 175°
2026-04-24 09:25 30.14251 31.37889 34910 ft 457 kts 174°
2026-04-24 09:26 30.08176 31.40206 34916 ft 469 kts 159°
2026-04-24 09:26 30.02589 31.44240 34921 ft 478 kts 148°
2026-04-24 09:27 29.97245 31.48887 34908 ft 481 kts 147°
2026-04-24 09:27 29.91927 31.53520 34907 ft 483 kts 148°
2026-04-24 09:28 29.86511 31.58170 34903 ft 485 kts 148°
2026-04-24 09:28 29.81096 31.62781 34917 ft 487 kts 148°
2026-04-24 09:29 29.75634 31.67418 34916 ft 488 kts 148°
2026-04-24 09:29 29.70148 31.72071 34914 ft 489 kts 148°
2026-04-24 09:30 29.63767 31.77478 34912 ft 489 kts 148°
2026-04-24 09:30 29.59206 31.81338 34913 ft 489 kts 148°
2026-04-24 09:31 29.53714 31.85980 34917 ft 488 kts 148°
2026-04-24 09:31 29.48264 31.90580 34920 ft 488 kts 147°
2026-04-24 09:32 29.42776 31.95206 34917 ft 488 kts 147°
2026-04-24 09:32 29.37325 31.99794 34911 ft 487 kts 148°
2026-04-24 09:33 29.31866 32.04382 34917 ft 486 kts 148°
2026-04-24 09:33 29.26409 32.08962 34911 ft 485 kts 148°
2026-04-24 09:34 29.20990 32.13505 34910 ft 484 kts 148°
2026-04-24 09:34 29.15550 32.18060 34909 ft 483 kts 148°
2026-04-24 09:35 29.10116 32.22602 34903 ft 482 kts 148°
2026-04-24 09:35 29.04737 32.27093 34906 ft 481 kts 148°
2026-04-24 09:36 28.99324 32.31607 34905 ft 480 kts 148°
2026-04-24 09:36 28.93949 32.36082 34901 ft 480 kts 148°
2026-04-24 09:37 28.88536 32.40584 34918 ft 480 kts 148°
2026-04-24 09:37 28.83164 32.45043 34903 ft 480 kts 148°
2026-04-24 09:38 28.77763 32.49524 34903 ft 480 kts 148°
2026-04-24 09:38 28.72362 32.53998 34896 ft 479 kts 148°
2026-04-24 09:39 28.66963 32.58464 34901 ft 478 kts 148°
2026-04-24 09:39 28.61566 32.62924 34895 ft 478 kts 149°
2026-04-24 09:40 28.56202 32.67348 34888 ft 478 kts 149°
2026-04-24 09:40 28.50802 32.71798 34892 ft 479 kts 149°
2026-04-24 09:41 28.45421 32.76226 34869 ft 479 kts 149°
2026-04-24 09:41 28.40031 32.80657 34878 ft 480 kts 149°
2026-04-24 09:42 28.34615 32.85103 34873 ft 480 kts 149°
2026-04-24 09:42 28.29188 32.89552 34867 ft 480 kts 149°
2026-04-24 09:43 28.23786 32.93975 34867 ft 481 kts 149°
2026-04-24 09:43 28.18357 32.98416 34869 ft 481 kts 150°
2026-04-24 09:44 28.12915 33.02861 34870 ft 481 kts 150°
2026-04-24 09:44 28.07510 33.07271 34861 ft 481 kts 150°
2026-04-24 09:45 28.02067 33.11706 34855 ft 481 kts 150°
2026-04-24 09:45 27.96660 33.16103 34853 ft 481 kts 150°
2026-04-24 09:46 27.91207 33.20533 34858 ft 481 kts 150°
2026-04-24 09:46 27.85798 33.24923 34854 ft 481 kts 150°
2026-04-24 09:47 27.80347 33.29342 34852 ft 481 kts 151°
2026-04-24 09:47 27.74901 33.33751 34847 ft 481 kts 151°
2026-04-24 09:48 27.69484 33.38132 34849 ft 481 kts 151°
2026-04-24 09:48 27.64040 33.42529 34848 ft 481 kts 151°
2026-04-24 09:49 27.58588 33.46928 34850 ft 482 kts 151°
2026-04-24 09:49 27.53156 33.51307 34846 ft 482 kts 151°
2026-04-24 09:50 27.47687 33.55700 34848 ft 482 kts 152°
2026-04-24 09:50 27.42243 33.60062 34864 ft 481 kts 152°
2026-04-24 09:51 27.36786 33.64432 34847 ft 481 kts 152°
2026-04-24 09:51 27.31315 33.68809 34857 ft 481 kts 152°
2026-04-24 09:52 27.25886 33.73148 34856 ft 481 kts 152°
2026-04-24 09:52 27.20490 33.77644 34848 ft 488 kts 144°
2026-04-24 09:53 27.16239 33.83783 34861 ft 508 kts 124°
2026-04-24 09:53 27.13492 33.91185 34855 ft 517 kts 117°
2026-04-24 09:54 27.10958 33.98708 34854 ft 518 kts 117°
2026-04-24 09:54 27.08313 34.06248 34856 ft 519 kts 118°
2026-04-24 09:55 27.05626 34.13730 34852 ft 520 kts 118°
2026-04-24 09:55 27.02920 34.21265 34853 ft 520 kts 118°
2026-04-24 09:56 27.00219 34.28801 34849 ft 520 kts 118°
2026-04-24 09:56 26.97519 34.36334 34847 ft 520 kts 118°
2026-04-24 09:57 26.94835 34.43813 34847 ft 519 kts 118°
2026-04-24 09:57 26.92133 34.51323 34841 ft 518 kts 118°
2026-04-24 09:58 26.89453 34.58760 34843 ft 516 kts 118°
2026-04-24 09:58 26.86761 34.66214 34842 ft 515 kts 118°
2026-04-24 09:59 26.84068 34.73655 34839 ft 514 kts 118°
2026-04-24 09:59 26.81395 34.81027 34842 ft 513 kts 118°
2026-04-24 10:00 26.79144 34.87227 34839 ft 512 kts 118°
2026-04-24 10:00 26.76468 34.94583 34836 ft 512 kts 118°
2026-04-24 10:01 26.73762 35.01978 34835 ft 512 kts 118°
2026-04-24 10:01 26.71068 35.09316 34839 ft 513 kts 118°
2026-04-24 10:02 26.68349 35.16719 34840 ft 515 kts 118°
2026-04-24 10:02 26.65616 35.24148 34843 ft 517 kts 119°
2026-04-24 10:03 26.62866 35.31610 34841 ft 519 kts 119°
2026-04-24 10:03 26.60111 35.39075 34840 ft 520 kts 119°
2026-04-24 10:04 26.57361 35.46515 34832 ft 520 kts 119°
2026-04-24 10:04 26.54568 35.53957 34842 ft 517 kts 120°
2026-04-24 10:05 26.51730 35.61347 34842 ft 516 kts 120°
2026-04-24 10:05 26.48913 35.68665 34836 ft 515 kts 121°
2026-04-24 10:06 26.44679 35.79687 34829 ft 516 kts 121°
2026-04-24 10:07 26.41841 35.87067 34830 ft 517 kts 121°
2026-04-24 10:07 26.39010 35.94415 34829 ft 519 kts 121°
2026-04-24 10:08 26.36145 36.01837 34831 ft 520 kts 121°
2026-04-24 10:08 26.33270 36.09272 34825 ft 522 kts 122°
2026-04-24 10:09 26.30407 36.16662 34820 ft 523 kts 122°
2026-04-24 10:09 26.27521 36.24100 34813 ft 524 kts 122°
2026-04-24 10:10 26.24622 36.31559 34807 ft 524 kts 122°
2026-04-24 10:10 26.21713 36.39029 34796 ft 524 kts 122°
2026-04-24 10:11 26.19144 36.46638 34795 ft 537 kts 110°
2026-04-24 10:11 26.18367 36.55052 34804 ft 555 kts 92°
2026-04-24 10:12 26.19195 36.63606 34807 ft 559 kts 87°
2026-04-24 10:12 26.20203 36.72215 34815 ft 560 kts 87°
2026-04-24 10:13 26.21124 36.80786 34821 ft 559 kts 88°
2026-04-24 10:13 26.21976 36.89390 34840 ft 558 kts 88°
2026-04-24 10:14 26.22810 36.97998 34843 ft 558 kts 88°
2026-04-24 10:14 26.23645 37.06584 34848 ft 557 kts 88°
2026-04-24 10:15 26.24475 37.15134 34860 ft 557 kts 88°
2026-04-24 10:15 26.25305 37.23719 34897 ft 557 kts 88°
2026-04-24 10:16 26.26125 37.32289 34866 ft 557 kts 88°
2026-04-24 10:16 26.26950 37.40888 34894 ft 556 kts 88°
2026-04-24 10:17 26.27758 37.49407 34880 ft 555 kts 88°
2026-04-24 10:17 26.28562 37.57953 34875 ft 553 kts 88°
2026-04-24 10:18 26.29360 37.66486 34888 ft 552 kts 88°
2026-04-24 10:18 26.30146 37.74945 34891 ft 552 kts 88°
2026-04-24 10:19 26.30936 37.83474 34876 ft 552 kts 88°
2026-04-24 10:19 26.31726 37.91959 34890 ft 552 kts 88°
2026-04-24 10:20 26.32519 38.00499 34876 ft 553 kts 88°
2026-04-24 10:20 26.33302 38.09027 34881 ft 552 kts 88°
2026-04-24 10:21 26.34074 38.17485 34889 ft 551 kts 88°
2026-04-24 10:21 26.34843 38.25985 34884 ft 550 kts 88°
2026-04-24 10:22 26.35596 38.34497 34896 ft 550 kts 88°
2026-04-24 10:22 26.36334 38.42975 34900 ft 551 kts 88°
2026-04-24 10:23 26.37072 38.51488 34907 ft 551 kts 88°
2026-04-24 10:23 26.37803 38.59966 34918 ft 551 kts 88°
2026-04-24 10:24 26.38533 38.68475 34922 ft 551 kts 88°
2026-04-24 10:24 26.39257 38.76993 34931 ft 550 kts 88°
2026-04-24 10:25 26.39971 38.85448 34931 ft 550 kts 88°
2026-04-24 10:25 26.40685 38.93958 34925 ft 550 kts 88°
2026-04-24 10:26 26.41395 39.02475 34931 ft 550 kts 88°
2026-04-24 10:26 26.42094 39.10930 34927 ft 550 kts 88°
2026-04-24 10:27 26.42794 39.19459 34930 ft 551 kts 88°
2026-04-24 10:27 26.43487 39.27993 34930 ft 551 kts 88°
2026-04-24 10:28 26.43978 39.36477 34937 ft 551 kts 90°
2026-04-24 10:28 26.44350 39.45034 34926 ft 552 kts 90°
2026-04-24 10:29 26.44737 39.53572 34934 ft 553 kts 90°
2026-04-24 10:29 26.45153 39.62153 34933 ft 554 kts 90°
2026-04-24 10:30 26.45576 39.70771 34934 ft 555 kts 90°
2026-04-24 10:30 26.45989 39.79343 34943 ft 556 kts 90°
2026-04-24 10:31 26.46397 39.87971 34939 ft 556 kts 90°
2026-04-24 10:31 26.46800 39.96606 34946 ft 556 kts 90°
2026-04-24 10:32 26.47194 40.05174 34948 ft 556 kts 90°
2026-04-24 10:32 26.47587 40.13811 34956 ft 556 kts 90°
2026-04-24 10:33 26.47973 40.22434 34952 ft 555 kts 90°
2026-04-24 10:33 26.48352 40.31000 34960 ft 555 kts 90°
2026-04-24 10:34 26.48729 40.39629 34973 ft 555 kts 90°
2026-04-24 10:34 26.49096 40.48189 34972 ft 555 kts 90°
2026-04-24 10:35 26.49463 40.56816 34980 ft 556 kts 90°
2026-04-24 10:35 26.49825 40.65455 34983 ft 557 kts 90°
2026-04-24 10:36 26.50181 40.74047 34981 ft 557 kts 90°
2026-04-24 10:36 26.50534 40.82704 34985 ft 558 kts 90°
2026-04-24 10:37 26.50883 40.91394 34988 ft 559 kts 90°
2026-04-24 10:37 26.51225 40.99919 34984 ft 541 kts 92°
2026-04-24 10:38 26.51246 41.08241 35000 ft 534 kts 99°
2026-04-24 10:38 26.50647 41.16489 35008 ft 536 kts 100°
2026-04-24 10:39 26.49993 41.24837 35011 ft 540 kts 100°
2026-04-24 10:39 26.49375 41.33194 35006 ft 543 kts 100°
2026-04-24 10:40 26.48774 41.41629 35002 ft 544 kts 100°
2026-04-24 10:40 26.48177 41.50007 35003 ft 545 kts 100°
2026-04-24 10:41 26.47568 41.58443 35001 ft 545 kts 100°
2026-04-24 10:41 26.46949 41.66897 35005 ft 545 kts 100°
2026-04-24 10:42 26.46330 41.75277 34997 ft 544 kts 100°
2026-04-24 10:42 26.45704 41.83698 34997 ft 543 kts 100°
2026-04-24 10:43 26.45072 41.92124 35004 ft 543 kts 100°
2026-04-24 10:43 26.44441 42.00465 34997 ft 542 kts 100°
2026-04-24 10:44 26.43803 42.08852 34999 ft 541 kts 100°
2026-04-24 10:44 26.43163 42.17182 35003 ft 540 kts 100°
2026-04-24 10:45 26.42517 42.25529 35008 ft 540 kts 100°
2026-04-24 10:45 26.41865 42.33894 35006 ft 540 kts 100°
2026-04-24 10:46 26.41212 42.42212 35001 ft 540 kts 100°
2026-04-24 10:46 26.40551 42.50567 35003 ft 539 kts 100°
2026-04-24 10:47 26.39886 42.58921 35001 ft 539 kts 100°
2026-04-24 10:47 26.39331 42.65834 35009 ft 539 kts 100°
2026-04-24 10:48 26.38547 42.75531 35012 ft 539 kts 100°
2026-04-24 10:48 26.37981 42.82472 34996 ft 539 kts 100°
2026-04-24 10:49 26.37298 42.90818 35000 ft 539 kts 100°
2026-04-24 10:49 26.36611 42.99152 35003 ft 538 kts 100°
2026-04-24 10:50 26.35923 43.07414 35002 ft 538 kts 101°
2026-04-24 10:50 26.35219 43.15734 35000 ft 537 kts 101°
2026-04-24 10:51 26.34515 43.23987 34994 ft 537 kts 101°
2026-04-24 10:51 26.33803 43.32288 34997 ft 536 kts 101°
2026-04-24 10:52 26.33093 43.40522 34995 ft 536 kts 101°
2026-04-24 10:52 26.32373 43.48808 34986 ft 536 kts 101°
2026-04-24 10:53 26.31648 43.57095 34981 ft 537 kts 101°
2026-04-24 10:53 26.30923 43.65342 34961 ft 536 kts 100°
2026-04-24 10:54 26.30084 43.73565 34960 ft 530 kts 106°
2026-04-24 10:54 26.28101 43.81379 34966 ft 519 kts 116°
2026-04-24 10:55 26.25056 43.88598 34965 ft 512 kts 123°
2026-04-24 10:55 26.21745 43.95630 34967 ft 513 kts 123°
2026-04-24 10:56 26.18464 44.02653 34996 ft 515 kts 123°
2026-04-24 10:56 26.15180 44.09762 35000 ft 517 kts 123°
2026-04-24 10:57 26.11879 44.16923 35015 ft 520 kts 123°
2026-04-24 10:57 26.08576 44.24074 34981 ft 524 kts 123°
2026-04-24 10:58 26.05236 44.31289 35008 ft 525 kts 123°
2026-04-24 10:58 26.01883 44.38521 34994 ft 525 kts 123°
2026-04-24 10:59 25.98547 44.45705 35013 ft 524 kts 123°
2026-04-24 10:59 25.95189 44.52921 35001 ft 524 kts 123°
2026-04-24 11:00 25.91860 44.60064 35002 ft 522 kts 123°
2026-04-24 11:00 25.88514 44.67234 35007 ft 520 kts 123°
2026-04-24 11:01 25.85200 44.74321 34916 ft 520 kts 123°
2026-04-24 11:01 25.83504 44.77926 34063 ft 531 kts 123°
2026-04-24 11:01 25.81800 44.81552 33187 ft 523 kts 123°
2026-04-24 11:01 25.80139 44.85100 32331 ft 512 kts 123°
2026-04-24 11:02 25.78513 44.88571 31483 ft 502 kts 122°
2026-04-24 11:02 25.76898 44.92005 30667 ft 503 kts 122°
2026-04-24 11:02 25.75273 44.95447 30085 ft 504 kts 122°
2026-04-24 11:02 25.73634 44.98917 29425 ft 510 kts 122°
2026-04-24 11:03 25.71988 45.02398 28862 ft 521 kts 122°
2026-04-24 11:03 25.70282 45.06010 28245 ft 534 kts 121°
2026-04-24 11:03 25.68559 45.09666 27636 ft 533 kts 121°
2026-04-24 11:03 25.66843 45.13308 27022 ft 529 kts 121°
2026-04-24 11:04 25.65143 45.16907 26441 ft 524 kts 121°
2026-04-24 11:04 25.63479 45.20423 25855 ft 519 kts 121°
2026-04-24 11:04 25.61807 45.23951 25276 ft 515 kts 121°
2026-04-24 11:04 25.60147 45.27452 24697 ft 511 kts 121°
2026-04-24 11:05 25.58493 45.30935 24124 ft 507 kts 121°
2026-04-24 11:05 25.56856 45.34382 23544 ft 504 kts 121°
2026-04-24 11:05 25.55227 45.37811 22877 ft 500 kts 121°
2026-04-24 11:05 25.53617 45.41198 22284 ft 495 kts 121°
2026-04-24 11:06 25.52040 45.44513 21737 ft 490 kts 121°
2026-04-24 11:06 25.50458 45.47838 21177 ft 485 kts 121°
2026-04-24 11:06 25.48889 45.51130 20644 ft 480 kts 121°
2026-04-24 11:06 25.47335 45.54390 20109 ft 472 kts 121°
2026-04-24 11:07 25.44371 45.60609 19048 ft 444 kts 122°
2026-04-24 11:07 25.42944 45.63599 18563 ft 433 kts 122°
2026-04-24 11:07 25.41541 45.66526 18073 ft 429 kts 122°
2026-04-24 11:08 25.40148 45.69430 17535 ft 426 kts 122°
2026-04-24 11:08 25.38762 45.72324 17026 ft 422 kts 122°
2026-04-24 11:08 25.37410 45.75145 16543 ft 419 kts 122°
2026-04-24 11:08 25.36126 45.78010 16118 ft 413 kts 114°
2026-04-24 11:09 25.35528 45.81131 15871 ft 420 kts 96°
2026-04-24 11:09 25.35474 45.84400 15318 ft 428 kts 93°
2026-04-24 11:09 25.35472 45.87703 14840 ft 427 kts 92°
2026-04-24 11:09 25.35461 45.90954 14411 ft 415 kts 93°
2026-04-24 11:10 25.35430 45.94123 14029 ft 410 kts 94°
2026-04-24 11:10 25.35380 45.97228 13640 ft 406 kts 94°
2026-04-24 11:10 25.35321 46.00348 13217 ft 403 kts 94°
2026-04-24 11:10 25.35260 46.03430 12821 ft 399 kts 94°
2026-04-24 11:11 25.35202 46.06445 12410 ft 381 kts 94°
2026-04-24 11:11 25.35147 46.09270 12056 ft 361 kts 95°
2026-04-24 11:11 25.34708 46.11892 11705 ft 334 kts 117°
2026-04-24 11:11 25.33529 46.13985 11420 ft 308 kts 135°
2026-04-24 11:12 25.32034 46.15564 11119 ft 286 kts 149°
2026-04-24 11:12 25.30417 46.16657 10858 ft 268 kts 155°
2026-04-24 11:12 25.28792 46.17666 10618 ft 266 kts 155°
2026-04-24 11:12 25.27184 46.18674 10370 ft 265 kts 155°
2026-04-24 11:13 25.25583 46.19688 10125 ft 263 kts 155°
2026-04-24 11:13 25.24038 46.20670 10018 ft 254 kts 155°
2026-04-24 11:13 25.22509 46.21641 9958 ft 254 kts 155°
2026-04-24 11:13 25.20948 46.22631 9928 ft 262 kts 155°
2026-04-24 11:14 25.19351 46.23645 9872 ft 267 kts 154°
2026-04-24 11:14 25.17739 46.24673 9804 ft 266 kts 154°
2026-04-24 11:14 25.16138 46.25694 9748 ft 264 kts 154°
2026-04-24 11:14 25.14614 46.26783 9587 ft 267 kts 139°
2026-04-24 11:15 25.13670 46.28570 9452 ft 276 kts 108°
2026-04-24 11:15 25.13539 46.30709 9338 ft 283 kts 84°
2026-04-24 11:15 25.14175 46.32778 9250 ft 288 kts 61°
2026-04-24 11:15 25.15449 46.34445 9147 ft 289 kts 34°
2026-04-24 11:16 25.17176 46.35563 9077 ft 288 kts 28°
2026-04-24 11:16 25.18807 46.36521 8974 ft 289 kts 22°
2026-04-24 11:16 25.20622 46.36962 8876 ft 287 kts 354°
2026-04-24 11:16 25.22543 46.36499 8815 ft 281 kts 331°
2026-04-24 11:17 25.24231 46.35477 8743 ft 280 kts 325°
2026-04-24 11:17 25.25916 46.34375 8640 ft 282 kts 325°
2026-04-24 11:17 25.27613 46.33274 8567 ft 283 kts 326°
2026-04-24 11:17 25.29306 46.32185 8471 ft 280 kts 326°
2026-04-24 11:18 25.30985 46.31111 8374 ft 277 kts 326°
2026-04-24 11:18 25.32651 46.30069 8258 ft 275 kts 332°
2026-04-24 11:18 25.34517 46.29685 7862 ft 281 kts
2026-04-24 11:18 25.36313 46.30494 7505 ft 280 kts 41°
2026-04-24 11:19 25.37526 46.32096 7252 ft 266 kts 68°
2026-04-24 11:19 25.38072 46.33981 7024 ft 251 kts 86°
2026-04-24 11:19 25.38047 46.35845 6682 ft 238 kts 105°
2026-04-24 11:19 25.37706 46.37617 6347 ft 234 kts 108°
2026-04-24 11:20 25.37341 46.39361 6042 ft 230 kts 107°
2026-04-24 11:20 25.36987 46.41062 6025 ft 223 kts 111°
2026-04-24 11:20 25.36255 46.42494 6027 ft 216 kts 141°
2026-04-24 11:20 25.35021 46.43483 6026 ft 222 kts 152°
2026-04-24 11:21 25.33659 46.44339 6030 ft 226 kts 153°
2026-04-24 11:21 25.32314 46.45175 5990 ft 220 kts 153°
2026-04-24 11:21 25.31004 46.45994 6010 ft 213 kts 153°
2026-04-24 11:21 25.29726 46.46800 5990 ft 210 kts 152°
2026-04-24 11:22 25.28456 46.47601 6004 ft 209 kts 152°
2026-04-24 11:22 25.27195 46.48398 6017 ft 209 kts 152°
2026-04-24 11:22 25.25969 46.49286 6006 ft 211 kts 143°
2026-04-24 11:22 25.24868 46.50361 6017 ft 211 kts 140°
2026-04-24 11:23 25.23781 46.51459 6019 ft 213 kts 140°
2026-04-24 11:23 25.22691 46.52549 6026 ft 215 kts 141°
2026-04-24 11:23 25.21567 46.53661 6026 ft 219 kts 140°
2026-04-24 11:23 25.20429 46.54783 6066 ft 218 kts 140°
2026-04-24 11:24 25.19283 46.55907 6028 ft 222 kts 140°
2026-04-24 11:24 25.18132 46.57022 6016 ft 223 kts 143°
2026-04-24 11:24 25.16856 46.58001 6006 ft 222 kts 150°
2026-04-24 11:24 25.15523 46.58866 5905 ft 225 kts 151°
2026-04-24 11:25 25.14145 46.59738 5601 ft 228 kts 150°
2026-04-24 11:25 25.12803 46.60589 5313 ft 220 kts 150°
2026-04-24 11:25 25.11517 46.61404 5041 ft 206 kts 147°
2026-04-24 11:25 25.10308 46.62175 4789 ft 198 kts 146°
2026-04-24 11:26 25.09086 46.62956 4541 ft 205 kts 146°
2026-04-24 11:26 25.07839 46.63751 4271 ft 208 kts 147°
2026-04-24 11:26 25.06612 46.64530 4030 ft 202 kts 147°
2026-04-24 11:26 25.05414 46.65294 3733 ft 193 kts 147°
2026-04-24 11:27 25.04298 46.66002 3505 ft 178 kts 146°
2026-04-24 11:27 25.03291 46.66640 3277 ft 157 kts 147°
2026-04-24 11:27 25.02392 46.67208 3124 ft 148 kts 146°
2026-04-24 11:27 25.01480 46.67793 2910 ft 156 kts 146°
2026-04-24 11:28 25.00536 46.68395 2748 ft 157 kts 147°
2026-04-24 11:28 24.99589 46.68999 2550 ft 157 kts 148°
2026-04-24 11:28 24.98655 46.69582 2315 ft 156 kts 149°
2026-04-24 11:28 24.97727 46.70177 2105 ft 149 kts 149°
2026-04-24 11:29 24.96888 46.70708 2040 ft 126 kts 150°
2026-04-24 11:29 24.96307 46.71072 2041 ft 48 kts 154°
2026-04-24 11:29 24.96151 46.71097 2037 ft 19 kts 184°
2026-04-24 11:29 24.96057 46.71080 2041 ft 11 kts 206°
2026-04-24 11:30 24.96002 46.71027 2044 ft 9 kts 229°
2026-04-24 11:30 24.95977 46.70987 2042 ft 2 kts 240°
2026-04-24 11:30 24.95974 46.70977 2042 ft 1 kts 252°
2026-04-24 11:30 24.95977 46.70963 2041 ft 3 kts 287°
2026-04-24 11:31 24.96025 46.70911 2042 ft 14 kts 329°
2026-04-24 11:31 24.96106 46.70859 2044 ft 13 kts 329°
2026-04-24 11:31 24.96187 46.70806 2042 ft 13 kts 330°
2026-04-24 11:31 24.96263 46.70759 2044 ft 13 kts 330°
2026-04-24 11:32 24.96345 46.70707 2044 ft 13 kts 330°
2026-04-24 11:32 24.96426 46.70656 2043 ft 13 kts 330°
2026-04-24 11:32 24.96507 46.70604 2042 ft 13 kts 330°
2026-04-24 11:32 24.96590 46.70551 2043 ft 15 kts 330°
2026-04-24 11:33 24.96689 46.70489 2042 ft 17 kts 330°
2026-04-24 11:33 24.96792 46.70423 2041 ft 17 kts 330°
2026-04-24 11:33 24.96896 46.70358 2041 ft 17 kts 330°
2026-04-24 11:33 24.96979 46.70280 2041 ft 16 kts 281°
2026-04-24 11:34 24.96937 46.70168 2040 ft 16 kts 240°
2026-04-24 11:34 24.96900 46.70098 2043 ft 16 kts 244°
2026-04-24 11:34 24.96988 46.69983 2040 ft 16 kts 330°
2026-04-24 11:34 24.97086 46.69921 2041 ft 16 kts 330°
2026-04-24 11:35 24.97184 46.69859 2042 ft 16 kts 330°
2026-04-24 11:35 24.97249 46.69818 2039 ft 16 kts 330°
2026-04-24 11:35 24.97347 46.69756 2039 ft 16 kts 330°
2026-04-24 11:35 24.97483 46.69688 2040 ft 16 kts 330°
2026-04-24 11:36 24.97537 46.69655 2037 ft 11 kts 330°
2026-04-24 11:36 24.97565 46.69623 2041 ft 7 kts 282°
2026-04-24 11:36 24.97550 46.69569 2042 ft 7 kts 243°
2026-04-24 11:36 24.97536 46.69541 2038 ft 3 kts 240°
2026-04-24 11:37 24.97531 46.69532 2040 ft 1 kts 240°
2026-04-24 11:37 24.97529 46.69528 2040 ft 0 kts 240°